Bullhead City, AZ

7:26 AM MST on February 12, 2016 (GMT -0700)
Laughlin-Bullhead International

Weather History for KIFP - May, 2013

Change the Weather History Date:

Sunday, May 26, 2013

  Actual Average Record
Temperature  
Mean Temperature 82 °F -  
Max Temperature 95 °F 97 °F 109 °F (2001)
Min Temperature 68 °F 75 °F 56 °F (1993)
Cooling Degree Days 16    
Growing Degree Days 32 (Base 50)    
Moisture  
Dew Point 22 °F    
Average Humidity 11    
Maximum Humidity 19    
Minimum Humidity 6    
Precipitation  
Precipitation 0.00 in - - ()
Sea Level Pressure  
Sea Level Pressure 29.81 in    
Wind  
Wind Speed 8 mph (South)    
Max Wind Speed 23 mph    
Max Gust Speed 38 mph    
Visibility 10 miles    
Events      
Averages and records for this station are not official NWS values.
T = Trace of Precipitation, MM = Missing Value Source: NWS Daily Summary

Daily Weather History Graph

Daily Weather History Graph

Search for Another Location

Airport or City:

Trip Planner

Search our weather history database for the weather conditions in past years. The results will help you decide how hot, cold, wet, or windy it might be!

Date:

Astronomy

May. 26, 2013 Rise Set
Actual Time 5:27 AM MST 7:43 PM MST
Civil Twilight 4:58 AM MST 8:12 PM MST
Nautical Twilight 4:22 AM MST 8:48 PM MST
Astronomical Twilight 3:44 AM MST 9:26 PM MST
Moon 9:36 PM MST (5/26) 7:00 AM MST (5/26)
Length of Visible Light 15h 14m
Length of Day
14h 16m
Waning Gibbous, 96% of the Moon is Illuminated
May 26
Waning Gibbous
May 31
Last Quarter
Jun 8
New
Jun 16
First Quarter
Jun 23
Full

Hourly Weather History & Observations

Time (MST) Temp. Dew Point Humidity Pressure Visibility Wind Dir Wind Speed Gust Speed Precip Events Conditions
12:15 AM 75.2 °F 15.8 °F 11% 29.79 in 10.0 mi South 3.5 mph - N/A   Clear
12:35 AM 77.0 °F 15.8 °F 10% 29.80 in 10.0 mi Calm Calm - N/A   Clear
12:55 AM 75.2 °F 15.8 °F 11% 29.80 in 10.0 mi West 3.5 mph - N/A   Clear
1:15 AM 75.2 °F 17.6 °F 11% 29.80 in 10.0 mi Calm Calm - N/A   Clear
1:35 AM 73.4 °F 15.8 °F 11% 29.80 in 10.0 mi Calm Calm - N/A   Clear
1:55 AM 73.4 °F 15.8 °F 11% 29.80 in 10.0 mi SE 3.5 mph - N/A   Clear
2:15 AM 71.6 °F 15.8 °F 12% 29.80 in 10.0 mi SE 3.5 mph - N/A   Clear
2:35 AM 73.4 °F 17.6 °F 12% 29.80 in 10.0 mi Calm Calm - N/A   Clear
2:55 AM 71.6 °F 17.6 °F 13% 29.80 in 10.0 mi Calm Calm - N/A   Clear
3:15 AM 69.8 °F 17.6 °F 14% 29.80 in 10.0 mi Calm Calm - N/A   Clear
3:35 AM 71.6 °F 17.6 °F 13% 29.81 in 10.0 mi Calm Calm - N/A   Clear
3:55 AM 69.8 °F 17.6 °F 14% 29.80 in 10.0 mi SSE 5.8 mph - N/A   Clear
4:15 AM 71.6 °F 19.4 °F 14% 29.81 in 10.0 mi SSE 6.9 mph - N/A   Clear
4:35 AM 73.4 °F 21.2 °F 14% 29.81 in 10.0 mi South 8.1 mph - N/A   Clear
4:55 AM 73.4 °F 23.0 °F 15% 29.81 in 10.0 mi South 6.9 mph - N/A   Clear
5:15 AM 68.0 °F 23.0 °F 18% 29.81 in 10.0 mi Calm Calm - N/A   Clear
5:35 AM 69.8 °F 19.4 °F 15% 29.82 in 10.0 mi Calm Calm - N/A   Clear
5:55 AM 68.0 °F 19.4 °F 16% 29.83 in 10.0 mi NNW 3.5 mph - N/A   Clear
6:15 AM 68.0 °F 23.0 °F 18% 29.84 in 10.0 mi Calm Calm - N/A   Clear
6:35 AM 69.8 °F 24.8 °F 18% 29.84 in 10.0 mi SSE 5.8 mph - N/A   Clear
6:55 AM 71.6 °F 24.8 °F 17% 29.85 in 10.0 mi SSE 3.5 mph - N/A   Clear
7:15 AM 71.6 °F 26.6 °F 19% 29.86 in 10.0 mi Calm Calm - N/A   Clear
7:35 AM 73.4 °F 26.6 °F 18% 29.86 in 10.0 mi Calm Calm - N/A   Clear
7:55 AM 75.2 °F 26.6 °F 17% 29.87 in 10.0 mi SSW 6.9 mph - N/A   Clear
8:15 AM 77.0 °F 28.4 °F 17% 29.87 in 10.0 mi SW 9.2 mph - N/A   Clear
8:35 AM 77.0 °F 30.2 °F 18% 29.88 in 10.0 mi SSW 9.2 mph - N/A   Clear
8:55 AM 77.0 °F 30.2 °F 18% 29.88 in 10.0 mi SW 6.9 mph - N/A   Clear
9:15 AM 80.6 °F 32.0 °F 17% 29.88 in 10.0 mi SW 6.9 mph - N/A   Clear
9:35 AM 84.2 °F 28.4 °F 13% 29.88 in 10.0 mi South 12.7 mph - N/A   Clear
9:55 AM 84.2 °F 28.4 °F 13% 29.88 in 10.0 mi South 13.8 mph - N/A   Clear
10:15 AM 84.2 °F 30.2 °F 14% 29.88 in 10.0 mi South 12.7 mph 18.4 mph N/A   Clear
10:35 AM 86.0 °F 28.4 °F 12% 29.87 in 10.0 mi SSW 17.3 mph - N/A   Clear
10:55 AM 86.0 °F 28.4 °F 12% 29.87 in 10.0 mi South 13.8 mph 19.6 mph N/A   Clear
11:15 AM 87.8 °F 26.6 °F 11% 29.86 in 10.0 mi South 17.3 mph 23.0 mph N/A   Clear
11:35 AM 89.6 °F 24.8 °F 10% 29.86 in 10.0 mi South 16.1 mph 23.0 mph N/A   Clear
11:55 AM 89.6 °F 26.6 °F 10% 29.85 in 10.0 mi SSW 16.1 mph 26.5 mph N/A   Clear
12:15 PM 89.6 °F 24.8 °F 10% 29.84 in 10.0 mi South 19.6 mph 23.0 mph N/A   Clear
12:35 PM 91.4 °F 24.8 °F 9% 29.84 in 10.0 mi East 15.0 mph 23.0 mph N/A   Clear
12:55 PM 91.4 °F 24.8 °F 9% 29.84 in 10.0 mi ESE 17.3 mph 25.3 mph N/A   Clear
1:15 PM 91.4 °F 24.8 °F 9% 29.83 in 10.0 mi ESE 17.3 mph - N/A   Clear
1:35 PM 91.4 °F 23.0 °F 8% 29.82 in 10.0 mi South 23.0 mph 29.9 mph N/A   Clear
1:55 PM 93.2 °F 19.4 °F 7% 29.82 in 10.0 mi SSE 21.9 mph 28.8 mph N/A   Clear
2:15 PM 91.4 °F 21.2 °F 8% 29.81 in 10.0 mi South 17.3 mph 32.2 mph N/A   Clear
2:35 PM 93.2 °F 23.0 °F 8% 29.80 in 10.0 mi SSW 17.3 mph 28.8 mph N/A   Clear
2:55 PM 93.2 °F 23.0 °F 8% 29.79 in 10.0 mi SSE 18.4 mph 38.0 mph N/A   Clear
3:15 PM 93.2 °F 19.4 °F 7% 29.78 in 10.0 mi South 18.4 mph 27.6 mph N/A   Clear
3:35 PM 93.2 °F 19.4 °F 7% 29.78 in 10.0 mi South 13.8 mph 26.5 mph N/A   Clear
3:55 PM 95.0 °F 19.4 °F 6% 29.77 in 10.0 mi South 19.6 mph 26.5 mph N/A   Clear
4:15 PM 93.2 °F 19.4 °F 7% 29.76 in 10.0 mi South 20.7 mph 27.6 mph N/A   Clear
4:35 PM 93.2 °F 21.2 °F 7% 29.76 in 10.0 mi South 17.3 mph 29.9 mph N/A   Clear
4:55 PM 93.2 °F 23.0 °F 8% 29.75 in 10.0 mi SSE 19.6 mph 26.5 mph N/A   Clear
5:15 PM 93.2 °F 23.0 °F 8% 29.74 in 10.0 mi South 19.6 mph 24.2 mph N/A   Clear
5:35 PM 93.2 °F 19.4 °F 7% 29.74 in 10.0 mi South 21.9 mph 29.9 mph N/A   Clear
5:55 PM 93.2 °F 17.6 °F 6% 29.74 in 10.0 mi SSE 21.9 mph 25.3 mph N/A   Clear
6:15 PM 93.2 °F 17.6 °F 6% 29.73 in 10.0 mi SSE 23.0 mph 31.1 mph N/A   Clear
6:35 PM 93.2 °F 19.4 °F 7% 29.74 in 10.0 mi SSE 18.4 mph 25.3 mph N/A   Clear
6:55 PM 93.2 °F 21.2 °F 7% 29.74 in 10.0 mi South 16.1 mph 25.3 mph N/A   Clear
7:15 PM 91.4 °F 21.2 °F 8% 29.75 in 10.0 mi SSE 19.6 mph 24.2 mph N/A   Clear
7:35 PM 91.4 °F 19.4 °F 7% 29.75 in 10.0 mi SSE 17.3 mph - N/A   Clear
7:55 PM 91.4 °F 17.6 °F 7% 29.75 in 10.0 mi SSE 20.7 mph 25.3 mph N/A   Clear
8:15 PM 89.6 °F 17.6 °F 7% 29.76 in 10.0 mi SSE 19.6 mph - N/A   Clear
8:35 PM 89.6 °F 19.4 °F 8% 29.76 in 10.0 mi SSE 18.4 mph - N/A   Clear
8:55 PM 89.6 °F 21.2 °F 8% 29.76 in 10.0 mi SE 18.4 mph - N/A   Clear
9:15 PM 87.8 °F 21.2 °F 9% 29.76 in 10.0 mi SE 18.4 mph - N/A   Clear
9:35 PM 87.8 °F 23.0 °F 9% 29.77 in 10.0 mi SSE 17.3 mph 21.9 mph N/A   Clear
9:55 PM 86.0 °F 23.0 °F 10% 29.78 in 10.0 mi SSE 16.1 mph 21.9 mph N/A   Clear
10:15 PM 82.4 °F 26.6 °F 13% 29.79 in 10.0 mi SSW 6.9 mph - N/A   Clear
10:35 PM 82.4 °F 26.6 °F 13% 29.79 in 10.0 mi SSE 6.9 mph - N/A   Clear
10:55 PM 80.6 °F 26.6 °F 14% 29.80 in 10.0 mi South 3.5 mph - N/A   Clear
11:15 PM 80.6 °F 28.4 °F 15% 29.80 in 10.0 mi SSW 3.5 mph - N/A   Clear
11:35 PM 82.4 °F 26.6 °F 13% 29.80 in 10.0 mi SSW 6.9 mph - N/A   Clear
11:55 PM 82.4 °F 26.6 °F 13% 29.79 in 10.0 mi South 12.7 mph - N/A   Clear